Time,TemperatureF,DewpointF,PressureIn,WindDirection,WindDirectionDegrees,WindSpeedMPH,WindSpeedGustMPH,Humidity,HourlyPrecipIn,Conditions,Clouds,dailyrainin,SoftwareType,DateUTC
2013-04-15 00:00:00,34.9,30.2,29.49,East,90,0.0,0.7,83,0.00,,,0.00,meteobridge,2013-04-15 05:00:00,
2013-04-15 00:06:00,35.2,30.6,29.48,East,90,2.2,2.2,83,0.00,,,0.00,meteobridge,2013-04-15 05:06:00,
2013-04-15 00:12:00,35.2,30.6,29.48,NE,45,4.5,4.5,83,0.00,,,0.00,meteobridge,2013-04-15 05:12:00,
2013-04-15 00:17:00,35.4,30.7,29.48,WSW,248,3.8,3.8,83,0.00,,,0.00,meteobridge,2013-04-15 05:17:00,
2013-04-15 00:23:00,35.6,30.7,29.48,SE,135,2.2,6.0,82,0.00,,,0.00,meteobridge,2013-04-15 05:23:00,
2013-04-15 00:29:00,35.8,30.7,29.49,WSW,248,6.9,10.7,82,0.00,,,0.00,meteobridge,2013-04-15 05:29:00,
2013-04-15 00:34:00,36.3,30.4,29.49,South,180,12.1,12.1,79,0.00,,,0.00,meteobridge,2013-04-15 05:34:00,
2013-04-15 00:40:00,36.3,29.5,29.48,SSW,203,4.5,7.6,76,0.00,,,0.00,meteobridge,2013-04-15 05:40:00,
2013-04-15 00:46:00,36.3,29.1,29.49,East,90,7.6,11.4,75,0.00,,,0.00,meteobridge,2013-04-15 05:46:00,
2013-04-15 00:51:00,36.1,28.9,29.49,South,180,6.0,6.0,75,0.00,,,0.00,meteobridge,2013-04-15 05:51:00,
2013-04-15 00:57:00,36.0,28.8,29.49,WNW,293,9.2,9.2,75,0.00,,,0.00,meteobridge,2013-04-15 05:57:00,
2013-04-15 01:02:00,36.0,28.8,29.50,North,0,6.9,6.9,75,0.00,,,0.00,meteobridge,2013-04-15 06:02:00,
2013-04-15 01:08:00,35.6,28.4,29.49,NW,315,9.2,9.2,75,0.00,,,0.00,meteobridge,2013-04-15 06:08:00,
2013-04-15 01:14:00,35.6,28.4,29.49,NNW,338,5.4,5.4,75,0.00,,,0.00,meteobridge,2013-04-15 06:14:00,
2013-04-15 01:19:00,35.4,28.6,29.49,East,90,6.9,6.9,76,0.00,,,0.00,meteobridge,2013-04-15 06:19:00,
2013-04-15 01:25:00,35.4,28.6,29.49,SE,135,9.2,9.2,76,0.00,,,0.00,meteobridge,2013-04-15 06:25:00,
2013-04-15 01:31:00,35.4,28.6,29.49,SW,225,12.1,13.6,76,0.00,,,0.00,meteobridge,2013-04-15 06:31:00,
2013-04-15 01:36:00,35.2,28.0,29.49,NE,45,6.9,7.6,75,0.00,,,0.00,meteobridge,2013-04-15 06:36:00,
2013-04-15 01:41:00,35.1,27.9,29.49,WNW,293,6.0,13.6,75,0.00,,,0.00,meteobridge,2013-04-15 06:41:00,
2013-04-15 01:47:00,35.1,27.9,29.49,SSW,203,7.6,11.4,75,0.00,,,0.00,meteobridge,2013-04-15 06:47:00,
2013-04-15 01:52:00,34.9,27.5,29.48,West,270,7.6,9.2,74,0.00,,,0.00,meteobridge,2013-04-15 06:52:00,
2013-04-15 01:58:00,34.9,27.1,29.49,South,180,6.0,9.2,73,0.00,,,0.00,meteobridge,2013-04-15 06:58:00,
2013-04-15 02:04:00,34.7,27.0,29.48,East,90,3.8,9.8,73,0.00,,,0.00,meteobridge,2013-04-15 07:04:00,
2013-04-15 02:09:00,34.7,27.0,29.48,South,180,17.4,17.4,73,0.00,,,0.00,meteobridge,2013-04-15 07:09:00,
2013-04-15 02:15:00,34.9,26.8,29.48,SE,135,9.8,12.1,72,0.00,,,0.00,meteobridge,2013-04-15 07:15:00,
2013-04-15 02:21:00,34.7,26.2,29.48,North,0,6.0,9.2,71,0.00,,,0.00,meteobridge,2013-04-15 07:21:00,
2013-04-15 02:26:00,34.7,26.6,29.48,SW,225,9.8,13.6,72,0.00,,,0.00,meteobridge,2013-04-15 07:26:00,
2013-04-15 02:41:00,34.5,26.1,29.48,South,180,6.0,9.2,71,0.00,,,0.00,meteobridge,2013-04-15 07:41:00,
2013-04-15 02:43:00,34.2,26.1,29.48,South,180,9.8,9.8,72,0.00,,,0.00,meteobridge,2013-04-15 07:43:00,
2013-04-15 02:48:00,34.2,26.1,29.48,SSE,158,5.4,6.9,72,0.00,,,0.00,meteobridge,2013-04-15 07:48:00,
2013-04-15 02:49:00,34.2,26.1,29.48,SE,135,8.3,8.3,72,0.00,,,0.00,meteobridge,2013-04-15 07:49:00,
2013-04-15 02:51:00,34.2,26.1,29.48,SE,135,7.6,8.3,72,0.00,,,0.00,meteobridge,2013-04-15 07:51:00,
2013-04-15 02:54:00,34.2,26.1,29.48,NW,315,6.9,12.1,72,0.00,,,0.00,meteobridge,2013-04-15 07:54:00,
2013-04-15 02:59:00,34.2,26.1,29.49,South,180,11.4,13.0,72,0.00,,,0.00,meteobridge,2013-04-15 07:59:00,
2013-04-15 03:05:00,34.2,26.1,29.49,South,180,11.4,11.4,72,0.00,,,0.00,meteobridge,2013-04-15 08:05:00,
2013-04-15 03:11:00,34.2,25.0,29.49,SE,135,15.2,19.0,69,0.00,,,0.00,meteobridge,2013-04-15 08:11:00,
2013-04-15 03:16:00,34.0,23.9,29.50,SSW,203,23.5,23.5,66,0.00,,,0.00,meteobridge,2013-04-15 08:16:00,
2013-04-15 03:22:00,34.0,23.0,29.50,NW,315,14.5,23.5,64,0.00,,,0.00,meteobridge,2013-04-15 08:22:00,
2013-04-15 03:27:00,33.6,23.2,29.50,WSW,248,13.0,18.3,65,0.00,,,0.00,meteobridge,2013-04-15 08:27:00,
2013-04-15 03:33:00,33.4,23.0,29.50,SE,135,17.4,19.0,65,0.00,,,0.00,meteobridge,2013-04-15 08:33:00,
2013-04-15 03:35:00,33.3,22.8,29.50,East,90,13.0,22.8,65,0.00,,,0.00,meteobridge,2013-04-15 08:35:00,
2013-04-15 03:40:00,33.1,22.6,29.50,SW,225,18.3,19.7,65,0.00,,,0.00,meteobridge,2013-04-15 08:40:00,
2013-04-15 03:42:00,33.1,22.6,29.50,NNE,23,22.8,23.5,65,0.00,,,0.00,meteobridge,2013-04-15 08:42:00,
2013-04-15 03:43:00,33.1,22.6,29.50,South,180,16.8,22.8,65,0.00,,,0.00,meteobridge,2013-04-15 08:43:00,
2013-04-15 03:49:00,32.9,22.8,29.50,SW,225,20.6,20.6,66,0.00,,,0.00,meteobridge,2013-04-15 08:49:00,
2013-04-15 03:54:00,32.9,22.8,29.51,NE,45,12.1,22.1,66,0.00,,,0.00,meteobridge,2013-04-15 08:54:00,
2013-04-15 04:00:00,32.9,23.2,29.51,West,270,6.0,13.0,67,0.00,,,0.00,meteobridge,2013-04-15 09:00:00,
2013-04-15 04:05:00,32.7,23.0,29.51,West,270,10.7,13.0,67,0.00,,,0.00,meteobridge,2013-04-15 09:05:00,
2013-04-15 04:11:00,32.9,23.2,29.51,WNW,293,13.6,13.6,67,0.00,,,0.00,meteobridge,2013-04-15 09:11:00,
2013-04-15 04:17:00,32.7,23.0,29.51,South,180,13.6,19.0,67,0.00,,,0.00,meteobridge,2013-04-15 09:17:00,
2013-04-15 04:23:00,32.7,23.0,29.51,WSW,248,15.9,15.9,67,0.00,,,0.00,meteobridge,2013-04-15 09:23:00,
2013-04-15 04:28:00,32.5,22.8,29.51,ESE,113,13.0,15.2,67,0.00,,,0.00,meteobridge,2013-04-15 09:28:00,
2013-04-15 04:34:00,32.5,22.8,29.51,NW,315,15.9,15.9,67,0.00,,,0.00,meteobridge,2013-04-15 09:34:00,
2013-04-15 04:39:00,32.5,22.8,29.51,South,180,10.7,14.5,67,0.00,,,0.00,meteobridge,2013-04-15 09:39:00,
2013-04-15 04:45:00,32.4,22.6,29.51,ESE,113,8.3,13.0,67,0.00,,,0.00,meteobridge,2013-04-15 09:45:00,
2013-04-15 04:51:00,32.4,22.6,29.50,WNW,293,11.4,17.4,67,0.00,,,0.00,meteobridge,2013-04-15 09:51:00,
2013-04-15 04:56:00,32.4,22.6,29.50,SW,225,10.7,10.7,67,0.00,,,0.00,meteobridge,2013-04-15 09:56:00,
2013-04-15 05:02:00,32.4,22.6,29.50,SW,225,10.7,10.7,67,0.00,,,0.00,meteobridge,2013-04-15 10:02:00,
2013-04-15 05:07:00,32.4,23.0,29.50,South,180,7.6,10.7,68,0.00,,,0.00,meteobridge,2013-04-15 10:07:00,
2013-04-15 05:13:00,32.2,22.8,29.50,South,180,9.8,17.4,68,0.00,,,0.00,meteobridge,2013-04-15 10:13:00,
2013-04-15 05:19:00,32.2,22.5,29.50,South,180,11.4,13.6,67,0.00,,,0.00,meteobridge,2013-04-15 10:19:00,
2013-04-15 05:24:00,32.2,22.8,29.50,SW,225,13.6,13.6,68,0.00,,,0.00,meteobridge,2013-04-15 10:24:00,
2013-04-15 05:30:00,32.2,22.8,29.50,SW,225,10.7,11.4,68,0.00,,,0.00,meteobridge,2013-04-15 10:30:00,
2013-04-15 05:36:00,32.2,22.8,29.50,East,90,10.7,10.7,68,0.00,,,0.00,meteobridge,2013-04-15 10:36:00,
2013-04-15 05:41:00,32.2,22.8,29.50,North,0,13.0,15.9,68,0.00,,,0.00,meteobridge,2013-04-15 10:41:00,
2013-04-15 05:46:00,32.2,22.8,29.50,South,180,12.1,15.2,68,0.00,,,0.00,meteobridge,2013-04-15 10:46:00,
2013-04-15 05:52:00,32.2,22.8,29.50,South,180,15.9,15.9,68,0.00,,,0.00,meteobridge,2013-04-15 10:52:00,
2013-04-15 05:57:00,32.2,22.8,29.50,SW,225,11.4,11.4,68,0.00,,,0.00,meteobridge,2013-04-15 10:57:00,
2013-04-15 06:03:00,32.2,22.8,29.50,West,270,13.6,13.6,68,0.00,,,0.00,meteobridge,2013-04-15 11:03:00,
2013-04-15 06:09:00,32.2,22.8,29.50,SW,225,11.4,11.4,68,0.00,,,0.00,meteobridge,2013-04-15 11:09:00,
2013-04-15 06:14:00,32.2,22.8,29.50,North,0,12.1,15.2,68,0.00,,,0.00,meteobridge,2013-04-15 11:14:00,
2013-04-15 06:20:00,32.2,22.8,29.51,SSW,203,11.4,15.2,68,0.00,,,0.00,meteobridge,2013-04-15 11:20:00,
2013-04-15 06:26:00,32.2,22.8,29.51,SE,135,13.6,14.5,68,0.00,,,0.00,meteobridge,2013-04-15 11:26:00,
2013-04-15 06:31:00,32.2,22.8,29.51,South,180,12.1,18.3,68,0.00,,,0.00,meteobridge,2013-04-15 11:31:00,
2013-04-15 06:36:00,32.2,22.8,29.51,South,180,16.8,16.8,68,0.00,,,0.00,meteobridge,2013-04-15 11:36:00,
2013-04-15 06:42:00,32.2,23.2,29.51,SE,135,14.5,14.5,69,0.00,,,0.00,meteobridge,2013-04-15 11:42:00,
2013-04-15 06:47:00,32.2,23.2,29.51,West,270,9.2,10.7,69,0.00,,,0.00,meteobridge,2013-04-15 11:47:00,
2013-04-15 06:53:00,32.2,23.2,29.52,North,0,9.8,14.5,69,0.00,,,0.00,meteobridge,2013-04-15 11:53:00,
2013-04-15 06:58:00,32.2,23.2,29.52,NE,45,9.8,15.2,69,0.00,,,0.00,meteobridge,2013-04-15 11:58:00,
2013-04-15 07:03:00,32.4,23.4,29.52,SW,225,19.0,19.0,69,0.00,,,0.00,meteobridge,2013-04-15 12:03:00,
2013-04-15 07:09:00,32.4,23.4,29.52,South,180,13.6,15.2,69,0.00,,,0.00,meteobridge,2013-04-15 12:09:00,
2013-04-15 07:14:00,32.4,23.4,29.53,South,180,14.5,14.5,69,0.00,,,0.00,meteobridge,2013-04-15 12:14:00,
2013-04-15 07:20:00,32.4,23.4,29.53,SW,225,9.8,9.8,69,0.00,,,0.00,meteobridge,2013-04-15 12:20:00,
2013-04-15 07:26:00,32.5,23.5,29.53,South,180,13.6,17.4,69,0.00,,,0.00,meteobridge,2013-04-15 12:26:00,
2013-04-15 07:32:00,32.5,23.5,29.53,SW,225,12.1,15.2,69,0.00,,,0.00,meteobridge,2013-04-15 12:32:00,
2013-04-15 07:38:00,32.5,23.5,29.53,South,180,10.7,12.1,69,0.00,,,0.00,meteobridge,2013-04-15 12:38:00,
2013-04-15 07:43:00,32.5,23.5,29.53,South,180,13.0,15.2,69,0.00,,,0.00,meteobridge,2013-04-15 12:43:00,
2013-04-15 07:49:00,32.7,23.7,29.54,SW,225,15.2,15.2,69,0.00,,,0.00,meteobridge,2013-04-15 12:49:00,
2013-04-15 07:54:00,32.7,23.7,29.54,West,270,13.6,19.0,69,0.00,,,0.00,meteobridge,2013-04-15 12:54:00,
2013-04-15 08:01:00,32.9,23.9,29.54,SSE,158,16.8,16.8,69,0.00,,,0.00,meteobridge,2013-04-15 13:01:00,
2013-04-15 08:06:00,33.1,24.1,29.54,WNW,293,14.5,14.5,69,0.00,,,0.00,meteobridge,2013-04-15 13:06:00,
2013-04-15 08:12:00,33.1,24.1,29.54,WSW,248,12.1,16.8,69,0.00,,,0.00,meteobridge,2013-04-15 13:12:00,
2013-04-15 08:18:00,33.1,24.1,29.54,SW,225,10.7,15.2,69,0.00,,,0.00,meteobridge,2013-04-15 13:18:00,
2013-04-15 08:23:00,33.3,24.3,29.54,South,180,9.8,13.0,69,0.00,,,0.00,meteobridge,2013-04-15 13:23:00,
2013-04-15 08:29:00,33.4,24.4,29.55,South,180,15.2,17.4,69,0.00,,,0.00,meteobridge,2013-04-15 13:29:00,
2013-04-15 08:35:00,33.4,24.4,29.55,South,180,10.7,10.7,69,0.00,,,0.00,meteobridge,2013-04-15 13:35:00,
2013-04-15 08:40:00,33.8,24.4,29.55,South,180,19.7,19.7,68,0.00,,,0.00,meteobridge,2013-04-15 13:40:00,
2013-04-15 08:47:00,34.0,24.6,29.55,NE,45,14.5,16.8,68,0.00,,,0.00,meteobridge,2013-04-15 13:47:00,
2013-04-15 08:52:00,34.2,24.6,29.55,WNW,293,13.0,13.6,68,0.00,,,0.00,meteobridge,2013-04-15 13:52:00,
2013-04-15 08:58:00,34.0,24.6,29.54,North,0,12.1,12.1,68,0.00,,,0.00,meteobridge,2013-04-15 13:58:00,
2013-04-15 09:04:00,34.2,24.6,29.55,SW,225,14.5,14.5,68,0.00,,,0.00,meteobridge,2013-04-15 14:04:00,
2013-04-15 09:10:00,34.3,24.8,29.55,West,270,13.0,15.2,68,0.00,,,0.00,meteobridge,2013-04-15 14:10:00,
2013-04-15 09:15:00,34.5,25.0,29.55,SW,225,10.7,10.7,68,0.00,,,0.00,meteobridge,2013-04-15 14:15:00,
2013-04-15 09:21:00,34.5,25.0,29.56,SW,225,10.7,10.7,68,0.00,,,0.00,meteobridge,2013-04-15 14:21:00,
2013-04-15 09:26:00,34.9,25.3,29.55,SW,225,14.5,14.5,68,0.00,,,0.00,meteobridge,2013-04-15 14:26:00,
2013-04-15 09:32:00,35.2,25.7,29.55,South,180,11.4,14.5,68,0.00,,,0.00,meteobridge,2013-04-15 14:32:00,
2013-04-15 09:37:00,35.6,25.3,29.55,ESE,113,6.9,13.6,66,0.00,,,0.00,meteobridge,2013-04-15 14:37:00,
2013-04-15 09:42:00,36.0,25.3,29.55,SW,225,9.2,13.0,65,0.00,,,0.00,meteobridge,2013-04-15 14:42:00,
2013-04-15 09:48:00,36.1,25.5,29.56,SE,135,15.9,15.9,65,0.00,,,0.00,meteobridge,2013-04-15 14:48:00,
2013-04-15 09:54:00,36.5,25.9,29.56,WNW,293,15.2,15.2,65,0.00,,,0.00,meteobridge,2013-04-15 14:54:00,
2013-04-15 09:59:00,36.3,25.7,29.56,WSW,248,15.9,15.9,65,0.00,,,0.00,meteobridge,2013-04-15 14:59:00,
2013-04-15 10:05:00,36.3,25.7,29.57,WSW,248,15.9,15.9,65,0.00,,,0.00,meteobridge,2013-04-15 15:05:00,
2013-04-15 10:10:00,36.7,26.1,29.57,NW,315,8.3,12.1,65,0.00,,,0.00,meteobridge,2013-04-15 15:10:00,
2013-04-15 10:16:00,37.0,26.1,29.57,North,0,12.1,12.1,64,0.00,,,0.00,meteobridge,2013-04-15 15:16:00,
2013-04-15 10:22:00,37.0,26.1,29.57,SW,225,10.7,14.5,64,0.00,,,0.00,meteobridge,2013-04-15 15:22:00,
2013-04-15 10:27:00,36.9,25.9,29.59,WNW,293,11.4,15.9,64,0.00,,,0.00,meteobridge,2013-04-15 15:27:00,
2013-04-15 10:32:00,36.9,25.9,29.59,SE,135,14.5,14.5,64,0.00,,,0.00,meteobridge,2013-04-15 15:32:00,
2013-04-15 10:38:00,36.7,25.7,29.59,SW,225,16.8,16.8,64,0.00,,,0.00,meteobridge,2013-04-15 15:38:00,
2013-04-15 10:43:00,36.5,25.5,29.60,SW,225,13.0,13.0,64,0.00,,,0.00,meteobridge,2013-04-15 15:43:00,
2013-04-15 10:49:00,36.7,25.3,29.60,East,90,15.9,15.9,63,0.00,,,0.00,meteobridge,2013-04-15 15:49:00,
2013-04-15 10:55:00,36.9,25.5,29.61,South,180,8.3,14.5,63,0.00,,,0.00,meteobridge,2013-04-15 15:55:00,
2013-04-15 11:00:00,37.0,26.1,29.61,SW,225,13.0,15.9,64,0.00,,,0.00,meteobridge,2013-04-15 16:00:00,
2013-04-15 11:06:00,37.0,26.1,29.61,SW,225,13.0,13.0,64,0.00,,,0.00,meteobridge,2013-04-15 16:06:00,
2013-04-15 11:12:00,37.0,25.7,29.62,South,180,11.4,15.2,63,0.00,,,0.00,meteobridge,2013-04-15 16:12:00,
2013-04-15 11:17:00,36.9,25.9,29.62,SW,225,10.7,17.4,64,0.00,,,0.00,meteobridge,2013-04-15 16:17:00,
2013-04-15 11:22:00,36.9,25.9,29.62,SW,225,10.7,10.7,64,0.00,,,0.00,meteobridge,2013-04-15 16:22:00,
2013-04-15 11:28:00,36.9,25.9,29.63,NW,315,17.4,17.4,64,0.00,,,0.00,meteobridge,2013-04-15 16:28:00,
2013-04-15 11:33:00,36.9,25.5,29.63,West,270,13.6,17.4,63,0.01,,,0.01,meteobridge,2013-04-15 16:33:00,
2013-04-15 11:39:00,36.9,25.5,29.63,SSW,203,15.9,15.9,63,0.01,,,0.01,meteobridge,2013-04-15 16:39:00,
2013-04-15 11:45:00,36.9,25.5,29.64,SW,225,17.4,17.4,63,0.01,,,0.01,meteobridge,2013-04-15 16:45:00,
2013-04-15 11:50:00,36.9,25.5,29.64,NW,315,15.2,15.2,63,0.01,,,0.01,meteobridge,2013-04-15 16:50:00,
2013-04-15 11:56:00,37.0,26.1,29.65,SE,135,10.7,13.0,64,0.01,,,0.01,meteobridge,2013-04-15 16:56:00,
2013-04-15 12:02:00,37.0,25.7,29.65,West,270,13.0,15.2,63,0.01,,,0.01,meteobridge,2013-04-15 17:02:00,
2013-04-15 12:07:00,37.4,27.5,29.66,SW,225,15.2,15.2,67,0.01,,,0.01,meteobridge,2013-04-15 17:07:00,
2013-04-15 12:13:00,37.2,25.7,29.66,SW,225,13.6,13.6,63,0.01,,,0.01,meteobridge,2013-04-15 17:13:00,
2013-04-15 12:19:00,37.2,25.7,29.66,SW,225,16.8,16.8,63,0.01,,,0.01,meteobridge,2013-04-15 17:19:00,
2013-04-15 12:21:00,37.2,25.7,29.66,SW,225,14.5,16.8,63,0.01,,,0.01,meteobridge,2013-04-15 17:21:00,
2013-04-15 12:22:00,37.0,25.7,29.66,SW,225,13.0,14.5,63,0.01,,,0.01,meteobridge,2013-04-15 17:22:00,
2013-04-15 12:26:00,37.0,25.7,29.66,NW,315,13.0,14.5,63,0.01,,,0.01,meteobridge,2013-04-15 17:26:00,
2013-04-15 12:32:00,37.2,25.7,29.66,North,0,15.9,15.9,63,0.00,,,0.01,meteobridge,2013-04-15 17:32:00,
2013-04-15 12:38:00,37.4,27.5,29.66,NNW,338,18.3,18.3,67,0.00,,,0.01,meteobridge,2013-04-15 17:38:00,
2013-04-15 12:43:00,37.8,27.9,29.66,West,270,12.1,12.1,67,0.00,,,0.01,meteobridge,2013-04-15 17:43:00,
2013-04-15 12:49:00,37.9,28.0,29.66,SW,225,9.8,15.9,67,0.00,,,0.01,meteobridge,2013-04-15 17:49:00,
2013-04-15 12:54:00,38.5,28.0,29.67,SW,225,17.4,17.4,66,0.00,,,0.01,meteobridge,2013-04-15 17:54:00,
2013-04-15 13:00:00,37.9,27.7,29.67,NE,45,13.6,13.6,66,0.00,,,0.01,meteobridge,2013-04-15 18:00:00,
2013-04-15 13:06:00,37.9,27.7,29.67,NE,45,13.6,13.6,66,0.00,,,0.01,meteobridge,2013-04-15 18:06:00,
2013-04-15 13:11:00,38.1,27.9,29.68,NW,315,18.3,18.3,66,0.00,,,0.01,meteobridge,2013-04-15 18:11:00,
2013-04-15 13:17:00,38.5,28.0,29.68,NW,315,15.9,15.9,66,0.00,,,0.01,meteobridge,2013-04-15 18:17:00,
2013-04-15 13:23:00,38.3,27.5,29.69,West,270,14.5,16.8,65,0.00,,,0.01,meteobridge,2013-04-15 18:23:00,
2013-04-15 13:28:00,38.5,28.0,29.69,SW,225,18.3,18.3,66,0.00,,,0.01,meteobridge,2013-04-15 18:28:00,
2013-04-15 13:29:00,38.7,28.2,29.69,SW,225,13.0,18.3,66,0.00,,,0.01,meteobridge,2013-04-15 18:29:00,
2013-04-15 13:30:00,38.7,28.2,29.69,SW,225,17.4,17.4,66,0.00,,,0.01,meteobridge,2013-04-15 18:30:00,
2013-04-15 13:31:00,38.7,27.9,29.69,South,180,15.2,17.4,65,0.00,,,0.01,meteobridge,2013-04-15 18:31:00,
2013-04-15 13:32:00,38.7,27.9,29.69,NW,315,13.6,17.4,65,0.00,,,0.01,meteobridge,2013-04-15 18:32:00,
2013-04-15 13:37:00,38.3,27.5,29.70,NW,315,14.5,19.0,65,0.00,,,0.01,meteobridge,2013-04-15 18:37:00,
2013-04-15 13:43:00,38.3,27.9,29.70,WNW,293,15.9,16.8,66,0.00,,,0.01,meteobridge,2013-04-15 18:43:00,
2013-04-15 13:49:00,37.6,27.3,29.70,NW,315,18.3,20.6,66,0.00,,,0.01,meteobridge,2013-04-15 18:49:00,
2013-04-15 13:54:00,37.8,27.5,29.70,WSW,248,14.5,15.2,66,0.00,,,0.01,meteobridge,2013-04-15 18:54:00,
2013-04-15 14:00:00,37.8,27.5,29.71,WSW,248,17.4,19.7,66,0.00,,,0.01,meteobridge,2013-04-15 19:00:00,
2013-04-15 14:06:00,37.8,27.5,29.72,WNW,293,19.0,19.0,66,0.00,,,0.01,meteobridge,2013-04-15 19:06:00,
2013-04-15 14:11:00,37.9,27.1,29.72,NW,315,15.9,19.7,65,0.00,,,0.01,meteobridge,2013-04-15 19:11:00,
2013-04-15 14:17:00,38.1,27.3,29.72,SW,225,19.7,19.7,65,0.00,,,0.01,meteobridge,2013-04-15 19:17:00,
2013-04-15 14:22:00,38.3,27.5,29.72,WNW,293,20.6,20.6,65,0.00,,,0.01,meteobridge,2013-04-15 19:22:00,
2013-04-15 14:28:00,38.1,27.3,29.72,SW,225,13.0,17.4,65,0.00,,,0.01,meteobridge,2013-04-15 19:28:00,
2013-04-15 14:34:00,38.5,27.7,29.73,SW,225,16.8,19.0,65,0.00,,,0.01,meteobridge,2013-04-15 19:34:00,
2013-04-15 14:39:00,38.8,28.0,29.73,NW,315,14.5,19.0,65,0.00,,,0.01,meteobridge,2013-04-15 19:39:00,
2013-04-15 14:45:00,39.0,28.2,29.73,SW,225,20.6,20.6,65,0.00,,,0.01,meteobridge,2013-04-15 19:45:00,
2013-04-15 14:50:00,38.7,27.9,29.74,SW,225,15.2,15.2,65,0.00,,,0.01,meteobridge,2013-04-15 19:50:00,
2013-04-15 14:56:00,38.8,28.0,29.73,NW,315,12.1,14.5,65,0.00,,,0.01,meteobridge,2013-04-15 19:56:00,
2013-04-15 14:57:00,38.8,28.0,29.73,SW,225,17.4,17.4,65,0.00,,,0.01,meteobridge,2013-04-15 19:57:00,
2013-04-15 15:01:00,38.7,27.9,29.74,NW,315,17.4,17.4,65,0.00,,,0.01,meteobridge,2013-04-15 20:01:00,
2013-04-15 15:02:00,38.7,27.9,29.74,NW,315,17.4,17.4,65,0.00,,,0.01,meteobridge,2013-04-15 20:02:00,
2013-04-15 15:03:00,38.7,27.9,29.74,NW,315,17.4,17.4,65,0.00,,,0.01,meteobridge,2013-04-15 20:03:00,
2013-04-15 15:04:00,38.7,27.9,29.73,NW,315,17.4,17.4,65,0.00,,,0.01,meteobridge,2013-04-15 20:04:00,
2013-04-15 15:05:00,38.7,27.9,29.73,NW,315,17.4,17.4,65,0.00,,,0.01,meteobridge,2013-04-15 20:05:00,
2013-04-15 15:11:00,38.5,27.7,29.74,SW,225,16.8,25.1,65,0.00,,,0.01,meteobridge,2013-04-15 20:11:00,
2013-04-15 15:16:00,38.5,27.7,29.74,SW,225,13.0,16.8,65,0.00,,,0.01,meteobridge,2013-04-15 20:16:00,
2013-04-15 15:22:00,38.7,27.9,29.74,West,270,15.2,15.9,65,0.00,,,0.01,meteobridge,2013-04-15 20:22:00,
2013-04-15 15:27:00,38.5,27.7,29.75,West,270,10.7,14.5,65,0.00,,,0.01,meteobridge,2013-04-15 20:27:00,
2013-04-15 15:33:00,38.3,27.5,29.75,West,270,19.0,19.0,65,0.00,,,0.01,meteobridge,2013-04-15 20:33:00,
2013-04-15 15:38:00,38.1,27.3,29.75,NNW,338,20.6,20.6,65,0.00,,,0.01,meteobridge,2013-04-15 20:38:00,
2013-04-15 15:44:00,37.9,27.1,29.76,SW,225,22.8,22.8,65,0.00,,,0.01,meteobridge,2013-04-15 20:44:00,
2013-04-15 15:50:00,38.1,27.3,29.75,NW,315,19.7,22.1,65,0.00,,,0.01,meteobridge,2013-04-15 20:50:00,
2013-04-15 15:55:00,38.3,27.9,29.76,NW,315,15.2,16.8,66,0.00,,,0.01,meteobridge,2013-04-15 20:55:00,
2013-04-15 16:01:00,38.5,28.0,29.76,NW,315,15.2,17.4,66,0.00,,,0.01,meteobridge,2013-04-15 21:01:00,
2013-04-15 16:07:00,38.5,27.7,29.76,West,270,16.8,26.6,65,0.00,,,0.01,meteobridge,2013-04-15 21:07:00,
2013-04-15 16:12:00,38.5,27.7,29.77,SW,225,18.3,20.6,65,0.00,,,0.01,meteobridge,2013-04-15 21:12:00,
2013-04-15 16:18:00,38.3,27.5,29.77,West,270,17.4,19.0,65,0.00,,,0.01,meteobridge,2013-04-15 21:18:00,
2013-04-15 16:24:00,37.9,27.1,29.77,SW,225,16.8,16.8,65,0.00,,,0.01,meteobridge,2013-04-15 21:24:00,
2013-04-15 16:29:00,37.8,27.5,29.78,SW,225,15.2,15.9,66,0.00,,,0.01,meteobridge,2013-04-15 21:29:00,
2013-04-15 16:35:00,38.1,27.3,29.78,SW,225,21.3,21.3,65,0.00,,,0.01,meteobridge,2013-04-15 21:35:00,
2013-04-15 16:40:00,37.9,27.1,29.78,NW,315,11.4,15.9,65,0.00,,,0.01,meteobridge,2013-04-15 21:40:00,
2013-04-15 16:46:00,38.1,27.3,29.77,SW,225,18.3,18.3,65,0.00,,,0.01,meteobridge,2013-04-15 21:46:00,
2013-04-15 16:51:00,38.3,27.5,29.78,SW,225,14.5,15.9,65,0.00,,,0.01,meteobridge,2013-04-15 21:51:00,
2013-04-15 16:57:00,38.7,27.9,29.78,NW,315,14.5,14.5,65,0.00,,,0.01,meteobridge,2013-04-15 21:57:00,
2013-04-15 17:02:00,38.5,27.7,29.79,SW,225,13.6,13.6,65,0.00,,,0.01,meteobridge,2013-04-15 22:02:00,
2013-04-15 17:08:00,38.1,27.3,29.79,West,270,13.6,13.6,65,0.00,,,0.01,meteobridge,2013-04-15 22:08:00,
2013-04-15 17:13:00,37.9,27.1,29.80,SW,225,15.2,15.2,65,0.00,,,0.01,meteobridge,2013-04-15 22:13:00,
2013-04-15 17:19:00,38.1,27.3,29.79,SW,225,19.7,19.7,65,0.00,,,0.01,meteobridge,2013-04-15 22:19:00,
2013-04-15 17:25:00,37.9,27.1,29.80,West,270,13.6,18.3,65,0.00,,,0.01,meteobridge,2013-04-15 22:25:00,
2013-04-15 17:30:00,38.1,27.3,29.80,West,270,12.1,15.2,65,0.00,,,0.01,meteobridge,2013-04-15 22:30:00,
2013-04-15 17:36:00,37.9,27.1,29.80,NW,315,15.2,16.8,65,0.00,,,0.01,meteobridge,2013-04-15 22:36:00,
2013-04-15 17:42:00,37.8,27.1,29.80,SW,225,7.6,16.8,65,0.00,,,0.01,meteobridge,2013-04-15 22:42:00,
2013-04-15 17:47:00,37.6,27.0,29.80,SW,225,13.0,13.0,65,0.00,,,0.01,meteobridge,2013-04-15 22:47:00,
2013-04-15 17:52:00,37.6,27.0,29.80,West,270,13.6,15.2,65,0.00,,,0.01,meteobridge,2013-04-15 22:52:00,
2013-04-15 17:58:00,37.6,27.3,29.80,SW,225,15.2,15.2,66,0.00,,,0.01,meteobridge,2013-04-15 22:58:00,
2013-04-15 18:04:00,37.6,27.3,29.81,SW,225,15.9,15.9,66,0.00,,,0.01,meteobridge,2013-04-15 23:04:00,
2013-04-15 18:09:00,37.6,27.3,29.81,West,270,13.6,14.5,66,0.00,,,0.01,meteobridge,2013-04-15 23:09:00,
2013-04-15 18:15:00,37.6,27.3,29.81,NW,315,12.1,15.9,66,0.00,,,0.01,meteobridge,2013-04-15 23:15:00,
2013-04-15 18:21:00,37.4,26.8,29.81,West,270,13.6,15.2,65,0.00,,,0.01,meteobridge,2013-04-15 23:21:00,
2013-04-15 18:26:00,37.4,27.1,29.81,West,270,12.1,13.0,66,0.00,,,0.01,meteobridge,2013-04-15 23:26:00,
2013-04-15 18:31:00,37.4,27.1,29.82,SW,225,13.6,13.6,66,0.00,,,0.01,meteobridge,2013-04-15 23:31:00,
2013-04-15 18:37:00,37.4,27.1,29.83,SW,225,15.2,15.2,66,0.00,,,0.01,meteobridge,2013-04-15 23:37:00,
2013-04-15 18:42:00,37.0,25.2,29.83,SW,225,13.0,13.0,62,0.00,,,0.01,meteobridge,2013-04-15 23:42:00,
2013-04-15 18:48:00,37.0,25.2,29.83,West,270,13.0,13.0,62,0.00,,,0.01,meteobridge,2013-04-15 23:48:00,
2013-04-15 18:54:00,36.9,25.0,29.84,South,180,11.4,13.6,62,0.00,,,0.01,meteobridge,2013-04-15 23:54:00,
2013-04-15 18:59:00,36.7,25.3,29.84,SW,225,9.8,11.4,63,0.00,,,0.01,meteobridge,2013-04-15 23:59:00,
2013-04-15 19:05:00,36.7,25.3,29.85,SW,225,9.8,9.8,63,0.00,,,0.01,meteobridge,2013-04-16 00:05:00,
2013-04-15 19:11:00,36.7,25.3,29.84,NW,315,15.9,15.9,63,0.00,,,0.01,meteobridge,2013-04-16 00:11:00,
2013-04-15 19:16:00,36.5,25.2,29.84,NW,315,7.6,10.7,63,0.00,,,0.01,meteobridge,2013-04-16 00:16:00,
2013-04-15 19:22:00,36.5,25.5,29.84,West,270,11.4,11.4,64,0.00,,,0.01,meteobridge,2013-04-16 00:22:00,
2013-04-15 19:28:00,36.5,25.5,29.84,NW,315,13.0,13.0,64,0.00,,,0.01,meteobridge,2013-04-16 00:28:00,
2013-04-15 19:33:00,36.5,25.5,29.84,NW,315,9.2,10.7,64,0.00,,,0.01,meteobridge,2013-04-16 00:33:00,
2013-04-15 19:39:00,36.3,25.3,29.84,West,270,8.3,13.6,64,0.00,,,0.01,meteobridge,2013-04-16 00:39:00,
2013-04-15 19:44:00,36.1,25.2,29.85,WNW,293,7.6,9.2,64,0.00,,,0.01,meteobridge,2013-04-16 00:44:00,
2013-04-15 19:50:00,36.1,25.5,29.85,West,270,10.7,10.7,65,0.00,,,0.01,meteobridge,2013-04-16 00:50:00,
2013-04-15 19:56:00,36.0,25.3,29.86,SW,225,8.3,11.4,65,0.00,,,0.01,meteobridge,2013-04-16 00:56:00,
2013-04-15 20:01:00,36.0,25.3,29.85,West,270,8.3,9.2,65,0.00,,,0.01,meteobridge,2013-04-16 01:01:00,
2013-04-15 20:07:00,36.0,25.3,29.85,North,0,9.2,12.1,65,0.00,,,0.01,meteobridge,2013-04-16 01:07:00,
2013-04-15 20:13:00,36.0,25.3,29.85,SW,225,8.3,14.5,65,0.00,,,0.01,meteobridge,2013-04-16 01:13:00,
2013-04-15 20:18:00,35.8,25.2,29.85,West,270,7.6,10.7,65,0.00,,,0.01,meteobridge,2013-04-16 01:18:00,
2013-04-15 20:24:00,35.6,25.0,29.85,West,270,9.2,9.2,65,0.00,,,0.01,meteobridge,2013-04-16 01:24:00,
2013-04-15 20:29:00,35.4,25.5,29.86,NW,315,7.6,9.8,67,0.00,,,0.01,meteobridge,2013-04-16 01:29:00,
2013-04-15 20:35:00,35.4,25.5,29.86,West,270,6.0,9.8,67,0.00,,,0.01,meteobridge,2013-04-16 01:35:00,
2013-04-15 20:41:00,35.2,25.3,29.86,West,270,8.3,8.3,67,0.00,,,0.01,meteobridge,2013-04-16 01:41:00,
2013-04-15 20:46:00,35.2,25.7,29.85,West,270,9.2,9.2,68,0.00,,,0.01,meteobridge,2013-04-16 01:46:00,
2013-04-15 20:52:00,35.2,25.7,29.86,SW,225,7.6,9.2,68,0.00,,,0.01,meteobridge,2013-04-16 01:52:00,
2013-04-15 20:58:00,35.2,25.3,29.86,SW,225,9.2,10.7,67,0.00,,,0.01,meteobridge,2013-04-16 01:58:00,
2013-04-15 21:03:00,35.2,25.3,29.87,SW,225,8.3,8.3,67,0.00,,,0.01,meteobridge,2013-04-16 02:03:00,
2013-04-15 21:09:00,34.9,25.3,29.87,SW,225,9.8,9.8,68,0.00,,,0.01,meteobridge,2013-04-16 02:09:00,
2013-04-15 21:15:00,34.7,25.2,29.88,West,270,6.9,8.3,68,0.00,,,0.01,meteobridge,2013-04-16 02:15:00,
2013-04-15 21:20:00,34.7,25.5,29.88,SW,225,9.2,9.2,69,0.00,,,0.01,meteobridge,2013-04-16 02:20:00,
2013-04-15 21:26:00,34.7,25.5,29.90,West,270,6.0,9.2,69,0.00,,,0.01,meteobridge,2013-04-16 02:26:00,
2013-04-15 21:31:00,34.7,25.5,29.89,SW,225,8.3,8.3,69,0.00,,,0.01,meteobridge,2013-04-16 02:31:00,
2013-04-15 21:37:00,34.7,25.5,29.89,NW,315,8.3,11.4,69,0.00,,,0.01,meteobridge,2013-04-16 02:37:00,
2013-04-15 21:43:00,34.7,25.5,29.89,SW,225,8.3,8.3,69,0.00,,,0.01,meteobridge,2013-04-16 02:43:00,
2013-04-15 21:48:00,34.5,25.3,29.90,North,0,8.3,10.7,69,0.00,,,0.01,meteobridge,2013-04-16 02:48:00,
2013-04-15 21:54:00,34.5,25.3,29.90,West,270,8.3,9.8,69,0.00,,,0.01,meteobridge,2013-04-16 02:54:00,
2013-04-15 22:00:00,34.5,25.3,29.91,West,270,8.3,9.8,69,0.00,,,0.01,meteobridge,2013-04-16 03:00:00,
2013-04-15 22:05:00,34.5,25.3,29.91,SW,225,13.0,13.6,69,0.00,,,0.01,meteobridge,2013-04-16 03:05:00,
2013-04-15 22:11:00,34.5,25.3,29.91,SW,225,7.6,9.8,69,0.00,,,0.01,meteobridge,2013-04-16 03:11:00,
2013-04-15 22:16:00,34.5,25.3,29.91,SW,225,8.3,10.7,69,0.00,,,0.01,meteobridge,2013-04-16 03:16:00,
2013-04-15 22:21:00,34.3,25.5,29.91,West,270,9.2,9.2,70,0.00,,,0.01,meteobridge,2013-04-16 03:21:00,
2013-04-15 22:27:00,34.3,25.5,29.91,SW,225,8.3,9.2,70,0.00,,,0.01,meteobridge,2013-04-16 03:27:00,
2013-04-15 22:33:00,34.5,25.7,29.91,West,270,9.2,9.2,70,0.00,,,0.01,meteobridge,2013-04-16 03:33:00,
2013-04-15 22:38:00,34.5,25.7,29.91,NW,315,7.6,9.8,70,0.00,,,0.01,meteobridge,2013-04-16 03:38:00,
2013-04-15 22:44:00,34.5,25.7,29.92,South,180,9.2,9.2,70,0.00,,,0.01,meteobridge,2013-04-16 03:44:00,
2013-04-15 22:50:00,34.7,25.9,29.92,NW,315,9.2,9.8,70,0.00,,,0.01,meteobridge,2013-04-16 03:50:00,
2013-04-15 22:55:00,34.7,25.9,29.93,SW,225,6.9,7.6,70,0.00,,,0.01,meteobridge,2013-04-16 03:55:00,
2013-04-15 23:00:00,34.7,25.9,29.93,West,270,10.7,10.7,70,0.00,,,0.01,meteobridge,2013-04-16 04:00:00,
2013-04-15 23:01:00,34.7,25.9,29.93,West,270,10.7,10.7,70,0.00,,,0.01,meteobridge,2013-04-16 04:01:00,
2013-04-15 23:02:00,34.7,25.9,29.93,West,270,10.7,10.7,70,0.00,,,0.01,meteobridge,2013-04-16 04:02:00,
2013-04-15 23:07:00,34.9,25.7,29.93,NW,315,10.7,10.7,69,0.00,,,0.01,meteobridge,2013-04-16 04:07:00,
2013-04-15 23:08:00,34.9,25.7,29.93,North,0,13.0,13.0,69,0.00,,,0.01,meteobridge,2013-04-16 04:08:00,
2013-04-15 23:14:00,35.1,25.5,29.94,WSW,248,9.2,11.4,68,0.00,,,0.01,meteobridge,2013-04-16 04:14:00,
2013-04-15 23:19:00,35.1,25.9,29.93,West,270,10.7,10.7,69,0.00,,,0.01,meteobridge,2013-04-16 04:19:00,
2013-04-15 23:25:00,34.9,25.7,29.93,North,0,6.0,7.6,69,0.00,,,0.01,meteobridge,2013-04-16 04:25:00,
2013-04-15 23:30:00,34.7,25.9,29.93,NW,315,6.0,7.6,70,0.00,,,0.01,meteobridge,2013-04-16 04:30:00,
2013-04-15 23:36:00,34.7,25.9,29.94,NW,315,13.6,13.6,70,0.00,,,0.01,meteobridge,2013-04-16 04:36:00,
2013-04-15 23:42:00,34.9,25.7,29.95,WNW,293,9.2,13.0,69,0.00,,,0.01,meteobridge,2013-04-16 04:42:00,
2013-04-15 23:47:00,34.7,25.2,29.95,West,270,13.0,15.9,68,0.00,,,0.01,meteobridge,2013-04-16 04:47:00,
2013-04-15 23:53:00,34.7,25.2,29.94,West,270,13.6,13.6,68,0.00,,,0.01,meteobridge,2013-04-16 04:53:00,
2013-04-15 23:59:00,34.7,24.8,29.94,West,270,13.6,17.4,67,0.00,,,0.01,meteobridge,2013-04-16 04:59:00,